[[{"header":{"parameterUnit":"m.s-1","parameterCategory":1,"la1":30.2991,"la2":30.254,"lo1":-89.0895,"lo2":-89.0444,"dx":0.0017,"dy":0.0017,"nx":28,"ny":28,"refTime":"2022-11-28T15:00:00:Z","depth":0,"parameterNumber":2,"parameterNumberName":"U-component_of_WINDS"},"data":[0,0,0,0,0,0,0,0,0,0,0,0,0,0,0,0,0,0,0,0,0,0,0,0,0,0,0,0,0,0,0,0,0,0,0,0,0,0,0,0,0,0,0,0,0,0,0,0,0,0,0,0,0,0,0,0,0,0,1.0764,1.0765,0,1.0864,1.0865,1.0866,1.0858,1.0856,1.0855,1.0853,1.0959,1.0963,1.0967,0,0,0,0,0,0,0,0,0,0,0,0,0,1.0571,1.0574,1.0764,1.0765,1.0766,1.0864,1.0865,1.0866,1.0858,1.0856,1.0854,1.0852,1.0958,1.0963,1.0968,0,0,0,0,0,0,0,0,0,0,0,0,0,1.0661,1.0576,1.0764,1.0774,1.0776,1.0863,1.0865,1.0867,1.0858,1.0856,1.0854,1.0852,1.0956,1.0962,1.0968,1.1053,0,0,1.0988,1.0991,0,0,0,0,0,0,0,0,1.0656,1.0668,1.0771,1.0773,1.0776,1.0846,1.0836,1.0929,1.0859,1.0827,1.0853,1.085,1.0924,1.0932,1.0956,1.1058,1.1063,1.0988,1.0992,1.0995,1.0997,0,0,0,0,0,0,0,1.065,1.0664,1.0803,1.0773,1.0775,1.0775,1.0785,1.0853,1.0887,1.083,1.0829,1.0841,1.0924,1.095,1.0959,1.1065,1.0988,1.0994,1.0998,1.1,1.1244,1.1247,0,0,0,0,0,0,1.0641,1.0659,1.08,1.0806,1.0709,1.078,1.0792,1.0826,1.0886,1.0893,1.0843,1.084,1.094,1.0951,1.0962,1.1067,1.0995,1.1001,1.1005,1.1242,1.1245,1.1248,0,0,0,0,0,0,1.0637,1.0653,1.0796,1.0733,1.0751,1.0786,1.0824,1.0829,1.0855,1.0896,1.0903,1.0863,1.0939,1.0953,1.1031,1.1071,1.1004,1.101,1.1239,1.1243,1.1246,1.1277,0,0,0,0,0,0,1.0631,1.0652,1.0683,1.0733,1.0754,1.0862,1.0827,1.0832,1.0865,1.0863,1.0916,1.0923,1.0938,1.1022,1.1038,1.1078,1.1015,1.1235,1.124,1.1245,1.1273,1.1282,1.1289,0,0,0,0,0,1.0624,1.0688,1.0685,1.0702,1.0794,1.0864,1.0876,1.0891,1.0868,1.0901,1.0928,1.0922,1.1064,1.103,1.1048,1.1091,1.1233,1.1239,1.1245,1.1269,1.128,1.1289,0,0,0,0,0,0,1.0642,1.0695,1.0692,1.0773,1.0814,1.0863,1.0904,1.0902,1.0951,1.0947,1.0965,1.0977,1.1056,1.1081,1.1042,1.1178,1.1146,1.1155,1.1158,1.1169,1.1177,1.1169,1.102,0,0,0,0,0,1.0656,1.0707,1.0751,1.0819,1.0839,1.0868,1.09,1.0908,1.0951,1.0969,1.1002,1.1045,1.11,1.1136,1.1188,1.1277,1.1289,1.1316,1.1324,1.133,1.1339,1.139,1.1402,1.1268,1.1268,1.1267,0,0,1.0684,1.0719,1.0751,1.0823,1.0856,1.0911,1.0883,1.0941,1.0983,1.0978,1.1053,1.1079,1.113,1.1214,1.1252,1.1237,1.1379,1.1338,1.1343,1.1348,1.1397,1.141,1.1421,1.1272,1.1271,1.127,0,0,1.0764,1.0795,1.0856,1.0889,1.0939,1.0958,1.0973,1.1022,1.1039,1.1115,1.1113,1.1164,1.1257,1.1293,1.1324,1.142,1.1417,1.1437,1.1481,1.153,1.1541,1.155,1.1586,1.1598,1.1445,1.1446,1.1446,0,1.0793,1.0874,1.0888,1.0947,1.098,1.0978,1.1041,1.1074,1.1138,1.1162,1.1144,1.1263,1.1297,1.139,1.1414,1.1438,1.1457,1.1431,1.1538,1.1547,1.1557,1.1591,1.1604,1.1448,1.1447,1.1447,1.1447,0,1.0909,1.0965,1.1008,1.107,1.1108,1.1169,1.1194,1.1232,1.1237,1.1259,1.1338,1.1378,1.144,1.1463,1.1468,1.1558,1.1547,1.1533,1.1501,1.1571,1.1604,1.1617,1.1451,1.145,1.1449,1.1449,0,0,1.1001,1.1071,1.1087,1.1116,1.1172,1.1217,1.1279,1.1338,1.1371,1.1416,1.147,1.155,1.1538,1.1573,1.1584,1.1627,1.1703,1.1608,1.161,1.1626,1.1806,1.1816,1.1831,1.1701,1.1703,1.1706,1.1802,0,1.1088,1.1196,1.1211,1.1308,1.1361,1.1361,1.1416,1.1457,1.1479,1.1529,1.1555,1.1612,1.1591,1.1613,1.1655,1.1684,1.174,1.1678,1.1753,1.1755,1.1741,1.1848,1.1859,1.1948,1.1815,1.1817,1.1819,0,1.1202,1.125,1.1352,1.1402,1.1425,1.1473,1.153,1.1578,1.1625,1.1639,1.1679,1.1685,1.1752,1.1717,1.181,1.1768,1.18,1.1819,1.1823,1.1831,1.1791,1.186,1.1976,1.199,1.1839,1.1837,1.1836,0,1.1261,1.1352,1.1424,1.1449,1.1509,1.1544,1.1571,1.1616,1.1652,1.1702,1.1726,1.1784,1.1816,1.1862,1.1884,1.1856,1.1976,1.1943,1.1991,1.1991,1.2016,1.2015,1.2141,1.2036,1.2036,1.2036,1.2035,0,1.1356,1.1418,1.1452,1.1497,1.1568,1.1586,1.1656,1.1682,1.1723,1.1775,1.1779,1.1828,1.1854,1.1907,1.1925,1.2001,1.2015,1.2029,1.2033,1.2029,1.2027,1.205,1.2045,1.2039,1.2038,1.2038,1.2037,0,1.1434,1.1458,1.1538,1.1589,1.1603,1.1653,1.1698,1.1743,1.1765,1.1831,1.1847,1.1884,1.1947,1.1974,1.2051,1.2063,1.2151,1.215,1.2134,1.2136,1.2183,1.2178,1.2328,1.235,1.223,1.2231,1.2232,0,1.1493,1.1541,1.1597,1.1631,1.1659,1.1714,1.1751,1.1771,1.181,1.1869,1.1907,1.197,1.2021,1.2123,1.2157,1.2218,1.2219,1.2267,1.2228,1.2223,1.2221,1.2218,1.2224,1.2275,1.2276,1.2277,1.2278,0,1.1595,1.1606,1.1657,1.1714,1.1757,1.1803,1.1848,1.1876,1.1905,1.1948,1.2012,1.2052,1.2131,1.2195,1.2257,1.2287,1.2288,1.229,1.2304,1.2301,1.229,1.2298,1.2155,1.2286,1.2285,1.2285,1.2284,1.2284,1.1666,1.171,1.1756,1.1814,1.185,1.1893,1.1938,1.1967,1.202,1.2086,1.2095,1.2165,1.2214,1.2298,1.233,1.2386,1.2374,1.2395,1.24,1.2405,1.2409,1.2281,1.2398,1.2397,1.2397,1.2397,1.2397,0,1.177,1.18,1.1854,1.1916,1.1963,1.1959,1.2009,1.2048,1.2109,1.2154,1.2205,1.228,1.2342,1.2382,1.2445,1.2482,1.2484,1.2498,1.2496,1.2503,1.2415,1.2397,1.2495,1.2495,1.2495,1.2495,1.2495,1.2495,1.1829,1.1903,1.192,1.2012,1.2043,1.211,1.2139,1.2179,1.2215,1.2299,1.235,1.2375,1.2419,1.2486,1.2543,1.2554,1.2577,1.2592,1.2602,1.2519,1.2509,1.2499,1.2482,1.2597,1.2597,1.2685,1.2686,1.2687]},{"header":{"parameterUnit":"m.s-1","parameterCategory":1,"la1":30.2991,"la2":30.254,"lo1":-89.0895,"lo2":-89.0444,"dx":0.0017,"dy":0.0017,"nx":28,"ny":28,"refTime":"2022-11-28T15:00:00:Z","depth":0,"parameterNumber":3,"parameterNumberName":"V-component_of_WINDS"},"data":[0,0,0,0,0,0,0,0,0,0,0,0,0,0,0,0,0,0,0,0,0,0,0,0,0,0,0,0,0,0,0,0,0,0,0,0,0,0,0,0,0,0,0,0,0,0,0,0,0,0,0,0,0,0,0,0,0,0,0.3034,0.3034,0,0.3059,0.3059,0.3059,0.3043,0.3042,0.3041,0.304,0.307,0.3071,0.3073,0,0,0,0,0,0,0,0,0,0,0,0,0,0.2974,0.2975,0.3034,0.3034,0.3034,0.3059,0.3059,0.306,0.3043,0.3042,0.3041,0.304,0.3069,0.3071,0.3073,0,0,0,0,0,0,0,0,0,0,0,0,0,0.3,0.2976,0.3033,0.3029,0.3029,0.3059,0.3059,0.306,0.3043,0.3042,0.3041,0.304,0.3069,0.3071,0.3073,0.3111,0,0,0.308,0.3081,0,0,0,0,0,0,0,0,0.2998,0.3002,0.3029,0.3029,0.3029,0.3046,0.3049,0.3077,0.3043,0.3038,0.304,0.3039,0.3063,0.3066,0.3073,0.3112,0.3113,0.308,0.3082,0.3083,0.3083,0,0,0,0,0,0,0,0.2997,0.3001,0.3044,0.303,0.3029,0.3026,0.3029,0.3054,0.3057,0.3038,0.3037,0.304,0.3063,0.3071,0.3074,0.3114,0.308,0.3082,0.3084,0.3085,0.3185,0.3187,0,0,0,0,0,0,0.2995,0.2999,0.3043,0.3044,0.301,0.3028,0.3031,0.3042,0.3056,0.3057,0.3041,0.3039,0.3068,0.3071,0.3075,0.3121,0.3083,0.3085,0.3086,0.3184,0.3186,0.3187,0,0,0,0,0,0,0.2994,0.2999,0.3042,0.3022,0.3027,0.3031,0.3043,0.3043,0.3051,0.3059,0.3059,0.3049,0.3067,0.3072,0.3102,0.3121,0.3086,0.3088,0.3182,0.3185,0.3186,0.3212,0,0,0,0,0,0,0.2992,0.2998,0.3012,0.3022,0.3028,0.3067,0.3044,0.3044,0.3055,0.3053,0.3066,0.3067,0.3066,0.3098,0.3104,0.3124,0.309,0.3181,0.3183,0.3186,0.3209,0.3214,0.3219,0,0,0,0,0,0.299,0.3019,0.3013,0.3018,0.3045,0.3069,0.3072,0.307,0.3056,0.3071,0.3075,0.3067,0.3118,0.3102,0.3108,0.3129,0.318,0.3183,0.3186,0.3207,0.3213,0.3219,0,0,0,0,0,0,0.3012,0.302,0.3013,0.3046,0.3057,0.3066,0.3084,0.3076,0.3092,0.309,0.3087,0.309,0.3122,0.3128,0.311,0.3166,0.3147,0.3151,0.3161,0.3167,0.3172,0.317,0.3091,0,0,0,0,0,0.302,0.3038,0.3044,0.3072,0.3078,0.308,0.309,0.3087,0.3099,0.3104,0.311,0.3123,0.3142,0.3155,0.3172,0.3209,0.3213,0.3227,0.3231,0.3235,0.324,0.3261,0.3268,0.3197,0.3197,0.3197,0,0,0.3038,0.3045,0.3056,0.3077,0.3085,0.3105,0.3084,0.3105,0.312,0.3107,0.3136,0.3142,0.3155,0.3189,0.3205,0.3196,0.326,0.3239,0.3242,0.3245,0.3265,0.3272,0.3278,0.3199,0.3198,0.3198,0,0,0.3082,0.3088,0.3112,0.312,0.3132,0.3133,0.3139,0.3149,0.3152,0.3181,0.3172,0.319,0.3222,0.3233,0.3242,0.3289,0.3282,0.3295,0.3321,0.3342,0.3347,0.3352,0.337,0.3377,0.3299,0.3299,0.3299,0,0.3103,0.3131,0.3126,0.3148,0.3158,0.3146,0.3172,0.318,0.3198,0.3206,0.3194,0.3235,0.3243,0.328,0.3292,0.3299,0.3307,0.3294,0.3346,0.3351,0.3356,0.3374,0.338,0.3301,0.33,0.33,0.33,0,0.3158,0.3177,0.3196,0.3212,0.3224,0.3248,0.3248,0.326,0.3257,0.3259,0.3289,0.3298,0.3318,0.3327,0.3323,0.3364,0.3358,0.3346,0.3327,0.3364,0.3381,0.3388,0.3303,0.3302,0.3302,0.3301,0,0,0.3217,0.3229,0.3236,0.3244,0.3256,0.3272,0.3295,0.3314,0.3326,0.3338,0.3359,0.3386,0.3376,0.3387,0.3385,0.3403,0.3441,0.339,0.339,0.34,0.3488,0.3498,0.3505,0.3436,0.3437,0.3438,0.3487,0,0.3262,0.3302,0.3298,0.3337,0.3356,0.3344,0.3365,0.3376,0.3379,0.3396,0.3399,0.342,0.3404,0.341,0.3428,0.3433,0.3459,0.3429,0.3457,0.3458,0.3456,0.3514,0.3524,0.357,0.3494,0.3495,0.3496,0,0.332,0.3333,0.3374,0.3384,0.3391,0.341,0.3427,0.3443,0.3455,0.3456,0.3468,0.3463,0.3488,0.3467,0.3503,0.3482,0.3493,0.3498,0.35,0.3504,0.3481,0.3521,0.3584,0.3592,0.3505,0.3505,0.3504,0,0.3361,0.3389,0.3417,0.3424,0.3435,0.3449,0.3455,0.3465,0.3477,0.3492,0.35,0.3518,0.3528,0.3543,0.3543,0.3527,0.358,0.3558,0.3583,0.3583,0.3596,0.3595,0.3664,0.36,0.36,0.36,0.36,0,0.3413,0.3438,0.3436,0.3454,0.3482,0.3478,0.3507,0.3511,0.3521,0.354,0.3531,0.3549,0.3547,0.3566,0.3567,0.3597,0.3602,0.3604,0.3605,0.3606,0.3606,0.3615,0.3612,0.3602,0.3601,0.3601,0.3601,0,0.3464,0.3463,0.3493,0.3501,0.3504,0.3525,0.3533,0.355,0.3552,0.3576,0.3582,0.3585,0.3607,0.3608,0.3633,0.3634,0.3671,0.3667,0.3667,0.3667,0.3692,0.369,0.377,0.3781,0.3708,0.3709,0.371,0,0.3498,0.3517,0.3527,0.3539,0.3545,0.3564,0.3575,0.3572,0.3584,0.3599,0.3615,0.3636,0.3653,0.3688,0.3694,0.3714,0.3711,0.3737,0.3714,0.3716,0.3714,0.3713,0.3716,0.3743,0.3743,0.3744,0.3745,0,0.3559,0.3557,0.3573,0.359,0.3604,0.3617,0.3629,0.3639,0.3637,0.3652,0.3673,0.3686,0.3712,0.3733,0.3752,0.376,0.3753,0.3751,0.3759,0.3762,0.3762,0.3764,0.3682,0.375,0.375,0.3749,0.3749,0.3749,0.3604,0.3621,0.363,0.3649,0.3657,0.3669,0.3686,0.3689,0.3707,0.3727,0.3724,0.3749,0.3761,0.3785,0.3794,0.3814,0.3805,0.3815,0.3818,0.3821,0.3825,0.3757,0.3818,0.3817,0.3817,0.3817,0.3817,0,0.3665,0.3671,0.3688,0.3705,0.372,0.371,0.3723,0.3736,0.3758,0.3769,0.3785,0.3811,0.3832,0.3838,0.3859,0.3874,0.3871,0.388,0.388,0.3882,0.383,0.3823,0.3881,0.3881,0.3881,0.3881,0.3881,0.3881,0.3699,0.3728,0.3728,0.3761,0.3767,0.379,0.3799,0.381,0.3819,0.3847,0.3864,0.3868,0.3878,0.3899,0.3918,0.3919,0.3928,0.3938,0.3939,0.3891,0.3885,0.3879,0.3872,0.394,0.394,0.3989,0.3989,0.399]}]]